Home > Weather > Dubbo > Past weeks

Flag for Australia Past Weather in Dubbo, New South Wales, Australia — Yesterday and Last 2 Weeks

Now
46 °F

Sunny.


Feels Like: 42 °F
Forecast: 40 / 56 °F
Wind: 8 mph from South

Location: Dubbo Airport

Current Time: Jul 28, 2016 at 9:04:59 AM

Latest Report: Jul 28, 2016 at 8:30 AM


Visibility: N/A

Pressure: 30.33 "Hg

Humidity: 87%

Dew Point: 43 °F

Location of DubboLocation

Past Weather in Dubbo — Graph

°F

Dubbo Temperature Yesterday

Maximum temperature yesterday: 57 °F (at 12:00 PM)
Minimum temperature yesterday: 39 °F (at 11:00 PM)
Average temperature yesterday: 50 °F

High & Low Weather Summary for the Past Weeks

 TemperatureHumidityPressure
High70 °F (Jul 18, 1:30 PM)100% (Jul 14, 3:00 AM)30.48 "Hg (Jul 14, 3:00 AM)
Low27 °F (Jul 14, 7:30 AM)43% (Jul 13, 4:30 PM)29.62 "Hg (Jul 22, 11:00 PM)
Average51 °F82%30.15 "Hg
* Reported Jul 13 8:00 AM — Jul 28 8:00 AM, Dubbo, Weather by CustomWeather, © 2016

Note: Actual official high and low records may vary slightly from our data, if they occured in-between our weather recording intervals... More about our weather records

Advertising

Dubbo Weather History for the Previous 24 Hours

Scroll right to see more
 ConditionsComfort  
Time TempWeatherWind HumidityBarometerVisibility
8:00 AM
Thu, Jul 28
45 °FSunny.6 mph87%30.33 "HgN/A
7:30 AM41 °FPartly sunny.No wind100%30.33 "HgN/A
7:00 AM39 °FScattered clouds.6 mph93%30.30 "HgN/A
6:00 AM43 °FSunny.3 mph93%30.27 "HgN/A
5:30 AM43 °FPassing clouds.7 mph93%30.24 "HgN/A
5:00 AM45 °FPassing clouds.7 mph93%30.24 "HgN/A
4:00 AM41 °FPassing clouds.6 mph100%30.24 "HgN/A
3:00 AM45 °FPartly cloudy.7 mph93%30.27 "HgN/A
2:30 AM45 °FPassing clouds.8 mph93%30.27 "HgN/A
2:00 AM45 °FPassing clouds.9 mph93%30.27 "HgN/A
1:00 AM45 °FOvercast.5 mph93%30.24 "HgN/A
12:00 AM41 °FPassing clouds.6 mph93%30.24 "HgN/A
11:00 PM
Wed, Jul 27
39 °FClear.No wind87%30.24 "HgN/A
10:30 PM45 °FClear.2 mph87%30.24 "HgN/A
10:00 PM43 °FClear.6 mph93%30.24 "HgN/A
9:30 PM45 °FClear.8 mph81%30.24 "HgN/A
9:00 PM45 °FClear.8 mph81%30.21 "HgN/A
8:30 PM45 °FClear.8 mph87%30.21 "HgN/A
8:00 PM46 °FClear.8 mph87%30.21 "HgN/A
7:00 PM46 °FPassing clouds.5 mph82%30.18 "HgN/A
6:00 PM50 °FPassing clouds.3 mph76%30.15 "HgN/A
5:30 PM50 °FClear.8 mph71%30.15 "HgN/A
5:00 PM54 °FClear.14 mph63%30.12 "HgN/A
4:30 PM55 °FPassing clouds.13 mph63%30.12 "HgN/A
4:00 PM57 °FSunny.15 mph59%30.12 "HgN/A
3:30 PM55 °FScattered clouds.13 mph63%30.09 "HgN/A
3:00 PM55 °FOvercast.18 mph63%30.09 "HgN/A
2:30 PM57 °FPartly sunny.16 mph55%30.09 "HgN/A
2:00 PM55 °FScattered clouds.16 mph59%30.07 "HgN/A
1:30 PM57 °FBroken clouds.16 mph55%30.07 "HgN/A
1:00 PM55 °FBroken clouds.17 mph59%30.07 "HgN/A
12:30 PM57 °FScattered clouds.15 mph63%30.07 "HgN/A
12:00 PM57 °FBroken clouds.16 mph63%30.07 "HgN/A
11:30 AM55 °FCool.15 mph67%30.09 "HgN/A
11:00 AM54 °FScattered clouds.17 mph72%30.07 "HgN/A
10:30 AM54 °FBroken clouds.14 mph77%30.09 "HgN/A
10:00 AM52 °FMostly cloudy.15 mph77%30.07 "HgN/A
9:30 AM52 °FMostly cloudy.13 mph77%30.07 "HgN/A
9:00 AM50 °FOvercast.9 mph88%30.07 "HgN/A
Weather by CustomWeather, © 2016

See weather overviewHow to use our weather pages